Powrót do katalogu

STARLINK-30503

AktywnyŁącznośćVLEO
NORAD 57975·PAYLOAD·🇺🇸 United States

Wystrzelony Sep 30, 2023 z Cape Canaveral Space Force Station

Loading…

Następne Przeloty (najbliższe 24 godziny)

TLE

ŚwieżeSource: CelesTrak SupGP

Epoka: Sep 15, 2026, 02:27 UTC

1 57975C 23151M   26258.10256944  .00026369  00000+0  95525-3 0  2581
2 57975  43.0019 346.6232 0001539 263.1336 344.4050 15.27559975    16

Śledź STARLINK-30503 w czasie rzeczywistym z AllMySat

Download on the App Store